period_start,C,m1,H,J0,J1,J2,J3,J4,J5,JA,JB,JC,JD,JJ,JK,JN,#
2015-03-17 00:00:41,0.26,2.62,0.00,23.78,27.35,30.21,4.62,27.48,1000.50,2030.96,2494.59,2618.55,2828.52,349.89,341.20,12.59,0000 0000 0000 0000 000000
2015-03-17 00:05:42,0.26,2.63,0.00,23.81,27.34,30.20,4.75,27.51,1000.50,2030.97,2492.36,2616.86,2826.73,350.23,341.45,12.62,0000 0000 0000 0000 000000
2015-03-17 00:10:43,0.23,2.64,0.00,23.83,27.34,30.20,4.68,27.50,1000.49,2030.97,2490.26,2615.34,2825.02,349.78,341.08,12.65,0000 0000 0000 0000 000000
2015-03-17 00:15:45,0.23,2.64,0.00,23.83,27.34,30.22,4.63,27.48,1000.50,2030.96,2488.18,2613.79,2823.35,349.69,340.99,12.68,0000 0000 0000 0000 000000
2015-03-17 00:20:46,0.25,2.65,0.00,23.85,27.34,30.19,4.77,27.75,1000.44,2030.96,2486.01,2612.19,2821.66,350.55,341.57,12.71,0000 0000 0000 0000 000000
2015-03-17 00:25:47,0.25,2.66,0.00,23.88,27.33,30.19,4.72,27.56,1000.25,2030.97,2483.88,2610.62,2819.96,349.63,340.84,12.74,0000 0000 0000 0000 000000
2015-03-17 00:30:48,0.23,2.66,0.00,23.87,27.33,30.14,4.68,27.51,1000.19,2030.98,2481.70,2609.06,2818.26,350.03,341.05,12.77,0000 0000 0000 0000 000000
2015-03-17 00:35:50,0.25,2.67,0.00,23.88,27.33,30.15,4.69,27.51,1000.06,2030.99,2479.57,2607.54,2816.59,349.90,341.00,12.80,0000 0000 0000 0000 000000
2015-03-17 00:40:51,0.24,2.68,0.00,23.85,27.32,30.12,4.79,27.48,1000.05,2030.99,2477.42,2605.90,2814.92,350.94,341.69,12.82,0000 0000 0000 0000 000000
2015-03-17 00:45:52,0.24,2.69,0.00,23.85,27.32,30.14,4.61,27.34,1000.04,2030.98,2475.20,2604.34,2813.24,349.76,340.90,12.85,0000 0000 0000 0000 000000
2015-03-17 00:50:53,0.25,2.69,0.00,23.87,27.32,30.15,4.66,27.52,1000.04,2030.99,2473.08,2602.77,2811.59,350.35,341.35,12.88,0000 0000 0000 0000 000000
2015-03-17 00:55:55,0.24,2.70,0.00,23.89,27.32,30.15,4.68,27.48,1000.05,2030.99,2470.95,2601.23,2809.85,349.70,340.50,12.91,0000 0000 0000 0000 000000
2015-03-17 01:00:56,0.24,2.71,0.00,23.93,27.32,30.18,4.65,27.23,1000.07,2030.99,2468.83,2599.66,2808.19,350.18,341.24,12.94,0000 0000 0000 0000 000000
2015-03-17 01:05:57,0.25,2.72,0.00,23.93,27.32,30.16,4.76,27.60,1000.06,2030.99,2466.59,2598.02,2806.48,350.09,340.60,12.97,0000 0000 0000 0000 000000
2015-03-17 01:10:58,0.23,2.72,0.00,23.92,27.32,30.15,4.64,27.48,1000.03,2030.99,2464.55,2596.52,2804.76,350.46,341.26,13.00,0000 0000 0000 0000 000000
2015-03-17 01:16:00,0.23,2.73,0.00,23.90,27.32,30.11,4.65,27.46,1000.02,2030.99,2462.47,2595.01,2803.18,349.62,340.60,13.03,0000 0000 0000 0000 000000
2015-03-17 01:21:01,0.24,2.74,0.00,23.94,27.32,30.19,4.69,27.46,1000.01,2030.98,2460.45,2593.58,2801.57,349.97,340.81,13.06,0000 0000 0000 0000 000000
2015-03-17 01:26:02,0.23,2.74,0.00,23.95,27.32,30.18,4.70,27.57,1000.01,2030.97,2458.32,2592.04,2799.93,350.08,341.18,13.09,0000 0000 0000 0000 000000
2015-03-17 01:31:04,0.25,2.75,0.00,23.97,27.32,30.14,4.68,27.41,999.97,2030.99,2456.26,2590.55,2798.32,349.45,340.35,13.12,0000 0000 0000 0000 000000
2015-03-17 01:36:05,0.24,2.76,0.00,23.98,27.32,30.17,4.64,27.25,999.84,2030.99,2454.16,2589.02,2796.69,349.62,340.45,13.15,0000 0000 0000 0000 000000
2015-03-17 01:41:06,0.23,2.76,0.00,24.02,27.32,30.16,4.72,27.48,999.77,2030.99,2452.08,2587.54,2795.15,349.81,340.30,13.18,0000 0000 0000 0000 000000
2015-03-17 01:46:07,0.22,2.77,0.00,24.00,27.31,30.11,4.71,27.46,999.68,2030.99,2450.11,2586.18,2793.62,350.12,340.44,13.21,0000 0000 0000 0000 000000
2015-03-17 01:51:08,0.23,2.78,0.00,23.99,27.30,30.14,4.62,27.56,999.57,2030.99,2448.13,2584.69,2792.07,349.66,340.42,13.23,0000 0000 0000 0000 000000
2015-03-17 01:56:10,0.22,2.79,0.00,24.03,27.30,30.15,4.73,27.49,999.57,2030.99,2446.12,2583.31,2790.56,349.91,340.59,13.26,0000 0000 0000 0000 000000
2015-03-17 02:01:11,0.22,2.79,0.00,24.03,27.30,30.13,4.59,27.50,999.64,2030.99,2444.12,2581.82,2788.97,349.57,340.13,13.29,0000 0000 0000 0000 000000
2015-03-17 02:06:13,0.23,2.80,0.00,24.08,27.30,30.13,4.67,27.57,999.60,2030.99,2442.07,2580.42,2787.48,349.98,340.66,13.32,0000 0000 0000 0000 000000
2015-03-17 02:11:14,0.18,2.81,0.00,24.07,27.30,30.10,4.72,27.62,999.55,2031.00,2440.32,2579.19,2786.07,350.00,340.57,13.35,0000 0000 0000 0000 000000
2015-03-17 02:16:15,0.21,2.81,0.00,24.06,27.30,30.10,4.61,27.48,999.55,2031.00,2438.60,2577.92,2784.68,349.28,340.06,13.38,0000 0000 0000 0000 000000
2015-03-17 02:21:17,0.21,2.82,0.00,24.07,27.30,30.13,4.68,27.49,999.54,2031.01,2436.82,2576.67,2783.44,349.95,340.37,13.41,0000 0000 0000 0000 000000
2015-03-17 02:26:18,0.20,2.82,0.00,24.11,27.30,30.14,4.69,27.43,999.55,2031.01,2435.07,2575.41,2781.95,350.00,340.57,13.44,0000 0000 0000 0000 000000
2015-03-17 02:31:20,0.18,2.83,0.00,24.14,27.29,30.14,4.75,27.63,999.54,2031.02,2433.42,2574.27,2780.71,350.13,340.66,13.47,0000 0000 0000 0000 000000
2015-03-17 02:36:21,0.19,2.84,0.00,24.14,27.28,30.16,4.67,27.38,999.53,2031.06,2431.78,2573.04,2779.42,349.77,340.24,13.50,0000 0000 0000 0000 000000
2015-03-17 02:41:22,0.19,2.84,0.00,24.10,27.27,30.15,4.61,27.42,999.53,2031.08,2430.18,2571.82,2778.03,349.67,340.10,13.53,0000 0000 0000 0000 000000
2015-03-17 02:46:24,0.21,2.85,0.00,24.11,27.27,30.18,4.67,27.43,999.53,2031.03,2428.42,2570.52,2776.59,349.80,340.37,13.56,0000 0000 0000 0000 000000
2015-03-17 02:51:25,0.19,2.85,0.00,24.12,27.27,30.16,4.71,27.64,999.53,2031.03,2426.63,2569.29,2775.30,350.00,340.56,13.59,0000 0000 0000 0000 000000
2015-03-17 02:56:26,0.21,2.86,0.00,24.14,27.27,30.11,4.70,27.55,999.53,2031.04,2424.93,2568.00,2773.88,350.30,340.94,13.62,0000 0000 0000 0000 000000
2015-03-17 03:01:28,0.21,2.86,0.00,24.16,27.27,30.07,4.65,27.60,999.53,2031.06,2423.26,2566.72,2772.53,349.90,340.65,13.65,0000 0000 0000 0000 000000
2015-03-17 03:06:29,0.19,2.87,0.00,24.11,27.26,30.14,4.61,27.48,999.53,2031.04,2421.37,2565.47,2771.17,349.77,340.34,13.67,0000 0000 0000 0000 000000
2015-03-17 03:11:30,0.21,2.88,0.00,24.13,27.25,30.16,4.73,27.51,999.51,2031.10,2419.68,2564.35,2769.84,350.16,340.80,13.70,0000 0000 0000 0000 000000
2015-03-17 03:16:32,0.17,2.88,0.00,24.12,27.25,30.15,4.67,27.49,999.50,2031.14,2418.07,2563.14,2768.55,350.02,340.43,13.73,0000 0000 0000 0000 000000
2015-03-17 03:21:33,0.20,2.89,0.00,24.09,27.25,30.12,4.68,27.57,999.47,2031.20,2416.48,2561.90,2767.36,350.15,340.83,13.76,0000 0000 0000 0000 000000
2015-03-17 03:26:34,0.20,2.89,0.00,24.15,27.25,30.13,4.58,27.44,999.45,2031.09,2414.73,2560.67,2765.93,348.80,339.30,13.79,0000 0000 0000 0000 000000
2015-03-17 03:31:36,0.21,2.90,0.00,24.13,27.25,30.09,4.68,27.50,999.41,2031.27,2413.09,2559.57,2764.75,349.70,340.33,13.82,0000 0000 0000 0000 000000
2015-03-17 03:36:37,0.25,2.91,0.00,24.17,27.24,30.07,4.58,27.38,999.16,2031.59,2411.54,2558.66,2763.52,349.55,339.71,13.85,0000 0000 0000 0000 000000
2015-03-17 03:41:38,0.20,2.91,0.00,24.18,27.24,30.09,4.55,27.40,999.10,2031.76,2409.88,2557.49,2762.31,349.01,339.50,13.88,0000 0000 0000 0000 000000
2015-03-17 03:46:39,0.18,2.92,0.00,24.22,27.23,30.09,4.68,27.34,999.07,2031.88,2408.36,2556.44,2761.11,349.04,339.45,13.91,0000 0000 0000 0000 000000
2015-03-17 03:51:40,0.20,2.93,0.00,24.22,27.22,30.10,4.61,27.52,999.08,2031.92,2406.79,2555.33,2759.86,349.79,339.95,13.94,0000 0000 0000 0000 000000
2015-03-17 03:56:41,0.17,2.93,0.00,24.12,27.22,30.04,4.77,27.63,999.17,2031.86,2405.15,2554.16,2758.59,350.29,340.73,13.97,0000 0000 0000 0000 000000
2015-03-17 04:01:43,0.20,2.94,0.00,24.23,27.22,30.07,4.72,27.47,999.16,2031.90,2403.51,2553.03,2757.40,350.21,340.56,14.00,0000 0000 0000 0000 000000
2015-03-17 04:06:44,0.18,2.94,0.00,24.21,27.22,30.08,4.74,27.55,999.06,2031.89,2401.85,2551.84,2756.13,350.46,340.75,14.03,0000 0000 0000 0000 000000
2015-03-17 04:11:45,0.18,2.95,0.00,24.23,27.22,30.02,4.64,27.53,999.05,2031.92,2400.45,2550.74,2754.92,349.86,340.00,14.05,0000 0000 0000 0000 000000
2015-03-17 04:16:46,0.18,2.95,0.00,24.24,27.22,30.06,4.73,27.56,999.04,2031.97,2399.00,2549.72,2753.78,350.48,340.60,14.08,0000 0000 0000 0000 000000
2015-03-17 04:21:48,0.19,2.96,0.00,24.17,27.21,29.98,4.69,27.39,999.04,2031.96,2397.45,2548.62,2752.62,350.44,340.86,14.11,0000 0000 0000 0000 000000
2015-03-17 04:26:49,0.18,2.96,0.00,24.14,27.20,29.89,4.63,27.42,999.03,2031.97,2395.81,2547.51,2751.48,350.07,340.42,14.14,0000 0000 0000 0000 000000
2015-03-17 04:31:50,0.16,2.97,0.00,24.21,27.20,29.99,4.62,27.57,999.01,2031.98,2394.30,2546.43,2750.47,349.79,340.13,14.17,0000 0000 0000 0000 000000
2015-03-17 04:36:52,0.18,2.97,0.00,24.25,27.20,30.04,4.73,27.54,998.91,2031.98,2392.75,2545.32,2749.28,350.29,340.43,14.20,0000 0000 0000 0000 000000
2015-03-17 04:41:53,0.15,2.98,0.00,24.27,27.20,30.00,4.71,27.37,998.84,2031.99,2391.27,2544.29,2748.19,350.08,340.02,14.23,0000 0000 0000 0000 000000
2015-03-17 04:46:55,0.17,2.98,0.00,24.26,27.20,29.97,4.67,27.32,998.62,2031.99,2389.89,2543.28,2747.02,350.02,340.10,14.26,0000 0000 0000 0000 000000
2015-03-17 04:51:56,0.17,2.99,0.00,24.22,27.20,29.98,4.66,27.46,998.60,2031.99,2388.51,2542.20,2745.87,349.79,339.99,14.29,0000 0000 0000 0000 000000
2015-03-17 04:56:57,0.16,2.99,0.00,24.22,27.20,29.91,4.64,27.42,998.56,2031.99,2387.07,2541.25,2744.77,350.32,340.00,14.32,0000 0000 0000 0000 000000
2015-03-17 05:01:58,0.17,3.00,0.00,24.29,27.20,29.99,4.61,27.47,998.55,2031.99,2385.67,2540.18,2743.74,349.48,339.52,14.35,0000 0000 0000 0000 000000
2015-03-17 05:07:00,0.15,3.00,0.00,24.29,27.20,29.98,4.65,27.58,998.55,2031.99,2384.38,2539.29,2742.67,350.31,340.32,14.38,0000 0000 0000 0000 000000
2015-03-17 05:12:01,0.15,3.01,0.00,24.18,27.20,29.84,4.68,27.52,998.55,2031.99,2383.06,2538.32,2741.68,350.59,340.74,14.41,0000 0000 0000 0000 000000
2015-03-17 05:17:02,0.15,3.01,0.00,24.20,27.19,29.88,4.64,27.52,998.55,2031.99,2381.80,2537.40,2740.73,349.98,340.20,14.44,0000 0000 0000 0000 000000
2015-03-17 05:22:03,0.13,3.02,0.00,24.27,27.19,29.99,4.58,27.43,998.48,2031.99,2380.65,2536.63,2739.80,349.40,339.66,14.46,0000 0000 0000 0000 000000
2015-03-17 05:27:04,0.13,3.02,0.00,24.27,27.19,29.97,4.70,27.50,998.42,2031.99,2379.49,2535.75,2738.84,350.81,340.78,14.49,0000 0000 0000 0000 000000
2015-03-17 05:32:06,0.13,3.03,0.00,24.22,27.18,29.86,4.64,27.44,998.23,2031.99,2378.14,2534.87,2737.94,349.73,339.47,14.52,0000 0000 0000 0000 000000
2015-03-17 05:37:07,0.12,3.03,0.00,24.29,27.18,29.87,4.67,27.48,998.09,2031.99,2377.02,2534.03,2737.04,350.01,339.92,14.55,0000 0000 0000 0000 000000
2015-03-17 05:42:08,0.15,3.03,0.00,24.30,27.17,29.94,4.63,27.48,998.07,2031.99,2375.90,2533.15,2736.16,349.50,339.73,14.58,0000 0000 0000 0000 000000
2015-03-17 05:47:09,0.15,3.04,0.00,24.30,27.17,29.91,4.63,27.39,998.07,2031.99,2374.73,2532.33,2735.24,350.29,340.14,14.61,0000 0000 0000 0000 000000
2015-03-17 05:52:10,0.11,3.04,0.00,24.26,27.17,29.86,4.61,27.43,998.06,2031.99,2373.78,2531.71,2734.47,349.66,339.50,14.64,0000 0000 0000 0000 000000
2015-03-17 05:57:12,0.12,3.04,0.00,24.24,27.17,29.82,4.65,27.32,998.06,2031.99,2372.64,2530.87,2733.65,349.76,339.71,14.67,0000 0000 0000 0000 000000
2015-03-17 06:02:13,0.14,3.05,0.00,24.18,27.17,29.82,4.72,27.52,998.06,2031.99,2371.44,2530.00,2732.64,350.24,340.22,14.70,0000 0000 0000 0000 000000
2015-03-17 06:07:14,0.12,3.05,0.00,24.21,27.17,29.82,4.62,27.42,998.06,2031.99,2370.26,2529.12,2731.88,349.42,339.39,14.73,0000 0000 0000 0000 000000
2015-03-17 06:12:16,0.12,3.06,0.00,24.23,27.17,29.82,4.61,27.32,998.06,2031.99,2369.28,2528.49,2731.07,349.63,339.76,14.76,0000 0000 0000 0000 000000
2015-03-17 06:17:17,0.11,3.06,0.00,24.16,27.17,29.85,4.54,27.43,998.05,2031.99,2368.23,2527.82,2730.26,349.42,339.27,14.79,0000 0000 0000 0000 000000
2015-03-17 06:22:18,0.12,3.06,0.00,24.19,27.16,29.80,4.61,27.37,998.02,2032.00,2367.23,2527.02,2729.52,349.72,339.71,14.82,0000 0000 0000 0000 000000
2015-03-17 06:27:20,0.13,3.07,0.00,24.21,27.15,29.80,4.72,27.42,997.98,2032.01,2366.26,2526.15,2728.80,350.93,340.78,14.85,0000 0000 0000 0000 000000
2015-03-17 06:32:21,0.11,3.07,0.00,24.22,27.15,29.83,4.60,27.33,997.71,2032.01,2365.35,2525.64,2728.00,350.15,339.97,14.88,0000 0000 0000 0000 000000
2015-03-17 06:37:23,0.13,3.08,0.00,24.26,27.15,29.88,4.61,27.59,997.60,2032.01,2364.18,2524.83,2727.13,349.83,339.52,14.90,0000 0000 0000 0000 000000
2015-03-17 06:42:24,0.13,3.08,0.00,24.23,27.15,29.89,4.67,27.49,997.58,2032.01,2363.00,2524.03,2726.28,350.08,339.98,14.93,0000 0000 0000 0000 000000
2015-03-17 06:47:25,0.13,3.08,0.00,24.25,27.15,29.92,4.72,27.65,997.57,2032.06,2362.02,2523.24,2725.64,350.06,339.81,14.96,0000 0000 0000 0000 000000
2015-03-17 06:52:27,0.08,3.09,0.00,24.26,27.15,29.97,4.72,27.53,997.57,2032.09,2361.16,2522.79,2724.96,349.90,339.76,14.99,0000 0000 0000 0000 000000
2015-03-17 06:57:28,0.12,3.09,0.00,24.16,27.15,29.97,4.64,27.65,997.56,2032.04,2360.25,2522.03,2724.12,350.10,339.83,15.02,0000 0000 0000 0000 000000
2015-03-17 07:02:29,0.14,3.09,0.00,24.13,27.15,29.87,4.62,27.60,997.53,2032.05,2359.44,2521.27,2723.50,349.61,339.48,15.05,0000 0000 0000 0000 000000
2015-03-17 07:07:30,0.12,3.10,0.00,24.05,27.15,29.90,4.63,27.60,997.46,2032.04,2358.31,2520.53,2722.60,349.57,339.49,15.08,0000 0000 0000 0000 000000
2015-03-17 07:12:32,0.07,3.10,0.00,24.02,27.15,29.96,4.73,27.65,997.54,2032.05,2357.42,2519.92,2721.86,350.03,340.03,15.11,0000 0000 0000 0000 000000
2015-03-17 07:17:33,0.13,3.10,0.00,24.08,27.17,29.99,4.65,27.48,997.57,2032.06,2356.39,2519.07,2721.02,349.75,339.69,15.14,0000 0000 0000 0000 000000
2015-03-17 07:22:35,0.14,3.11,0.00,24.12,27.17,29.98,4.64,27.61,997.57,2032.05,2355.39,2518.29,2720.18,349.54,339.37,15.17,0000 0000 0000 0000 000000
2015-03-17 07:27:36,0.14,3.11,0.00,24.01,27.17,29.99,4.69,27.72,997.56,2032.05,2354.34,2517.54,2719.36,349.57,339.45,15.20,0000 0000 0000 0000 000000
2015-03-17 07:32:37,0.13,3.11,0.00,23.87,27.17,29.90,4.71,27.53,997.56,2032.03,2353.15,2516.73,2718.37,350.34,340.40,15.23,0000 0000 0000 0000 000000
2015-03-17 07:37:39,0.10,3.12,0.00,24.00,27.17,29.90,4.62,27.55,997.56,2032.01,2352.07,2515.94,2717.45,349.68,339.70,15.26,0000 0000 0000 0000 000000
2015-03-17 07:42:40,0.14,3.12,0.00,24.01,27.18,29.91,4.75,27.68,997.48,2032.01,2351.02,2515.07,2716.61,350.31,340.26,15.29,0000 0000 0000 0000 000000
2015-03-17 07:47:41,0.12,3.13,0.00,23.89,27.19,29.91,4.75,27.61,997.46,2032.00,2350.00,2514.30,2715.84,350.64,340.74,15.31,0000 0000 0000 0000 000000
2015-03-17 07:52:42,0.12,3.13,0.00,23.81,27.20,29.88,4.69,27.60,997.47,2032.00,2349.00,2513.57,2714.96,350.00,340.18,15.34,0000 0000 0000 0000 000000
2015-03-17 07:57:44,0.10,3.13,0.00,23.87,27.20,29.87,4.69,27.52,997.43,2032.00,2348.02,2512.88,2714.10,349.88,340.01,15.37,0000 0000 0000 0000 000000
2015-03-17 08:02:45,0.14,3.14,0.00,23.92,27.20,29.84,4.70,27.50,997.38,2032.00,2346.92,2512.05,2713.24,349.60,339.73,15.40,0000 0000 0000 0000 000000
2015-03-17 08:07:46,0.14,3.14,0.00,23.90,27.20,29.92,4.64,27.53,997.41,2032.00,2345.87,2511.19,2712.37,349.40,339.53,15.43,0000 0000 0000 0000 000000
2015-03-17 08:12:47,0.13,3.14,0.00,23.80,27.20,29.90,4.67,27.45,997.19,2032.00,2344.86,2510.51,2711.68,349.72,339.90,15.46,0000 0000 0000 0000 000000
2015-03-17 08:17:48,0.12,3.15,0.00,23.80,27.20,29.91,4.65,27.40,997.17,2032.00,2343.74,2509.77,2710.81,349.80,339.92,15.49,0000 0000 0000 0000 000000
2015-03-17 08:22:50,0.09,3.15,0.00,23.85,27.20,29.94,4.62,27.53,997.09,2032.00,2342.84,2509.02,2710.02,349.74,339.82,15.52,0000 0000 0000 0000 000000
2015-03-17 08:27:51,0.15,3.16,0.00,23.81,27.20,29.98,4.69,27.53,997.09,2032.00,2341.78,2508.21,2709.18,350.14,340.13,15.55,0000 0000 0000 0000 000000
2015-03-17 08:32:53,0.14,3.16,0.00,23.63,27.20,29.94,4.66,27.52,997.09,2032.00,2340.73,2507.46,2708.29,350.20,340.56,15.58,0000 0000 0000 0000 000000
2015-03-17 08:37:54,0.08,3.16,0.00,23.74,27.21,29.86,4.68,27.48,997.10,2032.00,2339.78,2506.90,2707.64,349.58,339.81,15.61,0000 0000 0000 0000 000000
2015-03-17 08:42:56,0.11,3.17,0.00,23.96,27.22,29.91,4.67,27.48,997.10,2032.00,2338.82,2506.09,2706.90,349.98,339.85,15.64,0000 0000 0000 0000 000000
2015-03-17 08:47:57,0.13,3.17,0.00,23.94,27.22,29.96,4.62,27.45,997.09,2032.00,2337.84,2505.30,2706.06,349.72,339.68,15.67,0000 0000 0000 0000 000000
2015-03-17 08:52:58,0.14,3.17,0.00,23.72,27.22,29.93,4.69,27.51,997.09,2032.00,2336.72,2504.65,2705.23,350.34,340.51,15.70,0000 0000 0000 0000 000000
2015-03-17 08:58:00,0.10,3.18,0.00,23.78,27.22,29.86,4.62,27.56,997.09,2032.00,2335.70,2503.96,2704.40,349.01,339.21,15.72,0000 0000 0000 0000 000000
2015-03-17 09:03:01,0.12,3.18,0.00,23.92,27.22,29.86,4.76,27.58,997.09,2032.00,2334.73,2503.13,2703.70,350.10,340.11,15.75,0000 0000 0000 0000 000000
2015-03-17 09:08:02,0.14,3.19,0.00,23.92,27.22,29.88,4.69,27.39,997.09,2032.00,2333.65,2502.29,2702.85,349.99,340.07,15.78,0000 0000 0000 0000 000000
2015-03-17 09:13:04,0.11,3.19,0.00,23.77,27.22,29.88,4.66,27.50,997.09,2032.00,2332.66,2501.74,2702.03,349.46,339.50,15.81,0000 0000 0000 0000 000000
2015-03-17 09:18:05,0.11,3.19,0.00,23.79,27.22,29.83,4.68,27.31,997.09,2032.00,2331.70,2501.00,2701.27,350.26,340.48,15.84,0000 0000 0000 0000 000000
2015-03-17 09:23:07,0.14,3.20,0.00,23.94,27.22,29.89,4.72,27.48,997.09,2032.00,2330.69,2500.19,2700.47,350.25,339.82,15.87,0000 0000 0000 0000 000000
2015-03-17 09:28:07,0.09,3.20,0.00,23.79,27.22,29.85,4.66,27.57,997.09,2032.00,2329.82,2499.66,2699.82,350.25,340.42,15.90,0000 0000 0000 0000 000000
2015-03-17 09:33:09,0.10,3.20,0.00,23.76,27.22,29.83,4.68,27.51,997.09,2032.00,2328.84,2498.96,2699.01,349.93,340.06,15.93,0000 0000 0000 0000 000000
2015-03-17 09:38:10,0.12,3.21,0.00,23.72,27.22,29.76,4.59,27.42,997.09,2032.00,2328.02,2498.13,2698.16,349.40,339.64,15.96,0000 0000 0000 0000 000000
2015-03-17 09:43:12,0.13,3.21,0.00,23.87,27.22,29.78,4.66,27.49,997.09,2032.00,2327.13,2497.55,2697.49,350.42,340.29,15.99,0000 0000 0000 0000 000000
2015-03-17 09:48:13,0.10,3.21,0.00,23.88,27.22,29.86,4.71,27.44,997.09,2031.99,2326.03,2496.85,2696.73,350.17,340.17,16.02,0000 0000 0000 0000 000000
2015-03-17 09:53:14,0.11,3.22,0.00,23.80,27.21,29.86,4.70,27.38,997.09,2031.99,2325.06,2496.06,2696.01,350.14,340.12,16.05,0000 0000 0000 0000 000000
2015-03-17 09:58:15,0.12,3.22,0.00,23.60,27.21,29.82,4.66,27.38,997.09,2031.99,2324.24,2495.65,2695.26,350.28,340.62,16.08,0000 0000 0000 0000 000000
2015-03-17 10:03:17,0.09,3.22,0.00,23.85,27.20,29.78,4.69,27.45,997.09,2031.98,2323.21,2495.00,2694.64,349.98,339.75,16.11,0000 0000 0000 0000 000000
2015-03-17 10:08:18,0.12,3.23,0.00,23.85,27.20,29.82,4.63,27.42,997.08,2031.99,2322.27,2494.25,2693.92,349.86,339.93,16.13,0000 0000 0000 0000 000000
2015-03-17 10:13:19,0.11,3.23,0.00,23.90,27.20,29.85,4.63,27.42,997.06,2031.99,2321.40,2493.72,2693.07,349.95,339.94,16.16,0000 0000 0000 0000 000000
2015-03-17 10:18:20,0.10,3.23,0.00,23.78,27.20,29.83,4.65,27.54,997.07,2031.99,2320.53,2493.02,2692.38,350.03,340.19,16.19,0000 0000 0000 0000 000000
2015-03-17 10:23:22,0.11,3.24,0.00,23.90,27.20,29.83,4.69,27.48,997.06,2031.99,2319.64,2492.35,2691.84,350.00,340.07,16.22,0000 0000 0000 0000 000000
2015-03-17 10:28:23,0.08,3.24,0.00,23.91,27.20,29.88,4.72,27.49,997.05,2031.99,2318.74,2491.86,2691.03,350.22,340.10,16.25,0000 0000 0000 0000 000000
2015-03-17 10:33:24,0.12,3.24,0.00,23.90,27.20,29.85,4.68,27.49,997.01,2031.99,2317.83,2491.07,2690.25,350.10,340.05,16.28,0000 0000 0000 0000 000000
2015-03-17 10:38:25,0.11,3.25,0.00,23.86,27.20,29.89,4.68,27.46,997.02,2031.99,2316.94,2490.47,2689.68,350.02,339.76,16.31,0000 0000 0000 0000 000000
2015-03-17 10:43:27,0.07,3.25,0.00,23.62,27.20,29.78,4.66,27.30,996.97,2031.99,2316.02,2489.90,2688.99,349.82,340.30,16.34,0000 0000 0000 0000 000000
2015-03-17 10:48:28,0.13,3.25,0.00,23.76,27.20,29.77,4.62,27.48,996.80,2031.99,2315.14,2489.11,2688.21,349.75,339.72,16.37,0000 0000 0000 0000 000000
2015-03-17 10:53:30,0.13,3.26,0.00,23.80,27.20,29.83,4.67,27.56,996.71,2031.99,2314.25,2488.55,2687.50,349.58,339.68,16.40,0000 0000 0000 0000 000000
2015-03-17 10:58:31,0.06,3.26,0.00,23.83,27.20,29.82,4.72,27.51,996.61,2031.99,2313.40,2487.98,2686.97,350.72,340.55,16.43,0000 0000 0000 0000 000000
2015-03-17 11:03:32,0.13,3.26,0.00,23.79,27.20,29.83,4.61,27.48,996.62,2031.99,2312.55,2487.19,2686.17,349.90,339.85,16.46,0000 0000 0000 0000 000000
2015-03-17 11:08:34,0.09,3.27,0.00,23.62,27.20,29.80,4.70,27.41,996.60,2031.99,2311.72,2486.74,2685.67,350.47,340.59,16.49,0000 0000 0000 0000 000000
2015-03-17 11:13:35,0.07,3.27,0.00,23.76,27.20,29.76,4.72,27.41,996.60,2031.99,2310.93,2486.03,2685.01,350.44,340.44,16.52,0000 0000 0000 0000 000000
2015-03-17 11:18:36,0.12,3.27,0.00,23.91,27.20,29.81,4.67,27.41,996.60,2031.99,2310.11,2485.63,2684.36,350.05,339.98,16.54,0000 0000 0000 0000 000000
2015-03-17 11:23:37,0.07,3.27,0.00,23.84,27.20,29.82,4.61,27.52,996.60,2031.99,2309.28,2485.01,2683.87,349.46,339.41,16.57,0000 0000 0000 0000 000000
2015-03-17 11:28:38,0.13,3.28,0.00,23.86,27.20,29.86,4.67,27.59,996.59,2031.99,2308.50,2484.28,2683.05,349.84,339.70,16.60,0000 0000 0000 0000 000000
2015-03-17 11:33:39,0.08,3.28,0.00,23.69,27.19,29.83,4.65,27.44,996.43,2031.99,2307.69,2483.87,2682.36,349.82,339.89,16.63,0000 0000 0000 0000 000000
2015-03-17 11:38:40,0.09,3.28,0.00,23.80,27.20,29.82,4.67,27.45,996.23,2031.99,2306.91,2483.08,2681.84,350.12,339.85,16.66,0000 0000 0000 0000 000000
2015-03-17 11:43:42,0.12,3.29,0.00,23.91,27.20,29.82,4.56,27.50,996.18,2031.99,2306.06,2482.54,2681.05,349.73,339.42,16.69,0000 0000 0000 0000 000000
2015-03-17 11:48:43,0.09,3.29,0.00,23.85,27.20,29.84,4.62,27.55,996.14,2031.99,2305.26,2481.99,2680.45,349.20,338.97,16.72,0000 0000 0000 0000 000000
2015-03-17 11:53:44,0.10,3.29,0.00,23.87,27.19,29.87,4.70,27.43,996.12,2031.99,2304.49,2481.27,2679.97,350.06,339.81,16.75,0000 0000 0000 0000 000000
2015-03-17 11:58:46,0.07,3.30,0.00,23.87,27.19,29.86,4.72,27.60,996.12,2031.99,2303.74,2480.95,2679.18,349.99,339.82,16.78,0000 0000 0000 0000 000000
2015-03-17 12:03:47,0.11,3.30,0.00,23.64,27.19,29.85,4.66,27.52,996.11,2031.99,2303.00,2480.14,2678.70,350.37,340.30,16.81,0000 0000 0000 0000 000000
2015-03-17 12:08:48,0.06,3.30,0.00,23.81,27.18,29.82,4.69,27.63,996.11,2031.98,2302.23,2479.93,2678.02,349.96,339.71,16.84,0000 0000 0000 0000 000000
2015-03-17 12:13:49,0.12,3.30,0.00,23.81,27.18,29.78,4.75,27.57,996.11,2031.99,2301.69,2479.16,2677.39,350.58,340.31,16.87,0000 0000 0000 0000 000000
2015-03-17 12:18:51,0.08,3.31,0.00,23.80,27.17,29.85,4.70,27.52,996.11,2031.99,2300.91,2478.64,2676.90,350.34,339.89,16.90,0000 0000 0000 0000 000000
2015-03-17 12:23:52,0.10,3.31,0.00,23.77,27.17,29.89,4.63,27.47,996.11,2031.99,2300.05,2478.02,2676.10,349.62,339.36,16.93,0000 0000 0000 0000 000000
2015-03-17 12:28:54,0.11,3.31,0.00,23.69,27.17,29.82,4.70,27.46,996.06,2031.99,2299.28,2477.55,2675.68,349.91,339.78,16.95,0000 0000 0000 0000 000000
2015-03-17 12:33:55,0.07,3.32,0.00,23.81,27.17,29.79,4.69,27.50,995.79,2031.99,2298.53,2477.01,2675.02,349.89,339.56,16.98,0000 0000 0000 0000 000000
2015-03-17 12:38:56,0.10,3.32,0.00,23.85,27.17,29.87,4.68,27.47,995.69,2031.99,2297.84,2476.44,2674.42,350.48,340.14,17.01,0000 0000 0000 0000 000000
2015-03-17 12:43:57,0.05,3.32,0.00,23.83,27.17,29.88,4.68,27.40,995.66,2031.99,2297.04,2475.99,2673.91,349.67,339.41,17.04,0000 0000 0000 0000 000000
2015-03-17 12:48:58,0.13,3.32,0.00,23.78,27.17,29.85,4.61,27.45,995.65,2031.98,2296.20,2475.22,2673.11,349.72,339.35,17.07,0000 0000 0000 0000 000000
2015-03-17 12:54:00,0.08,3.33,0.00,23.75,27.17,29.80,4.62,27.59,995.65,2031.99,2295.34,2474.87,2672.65,349.55,339.13,17.10,0000 0000 0000 0000 000000
2015-03-17 12:59:01,0.10,3.33,0.00,23.77,27.17,29.83,4.63,27.49,995.63,2031.99,2294.69,2474.07,2672.01,349.91,339.33,17.13,0000 0000 0000 0000 000000
2015-03-17 13:04:03,0.09,3.33,0.00,23.78,27.17,29.80,4.72,27.45,995.62,2031.99,2293.83,2473.73,2671.50,350.64,340.03,17.16,0000 0000 0000 0000 000000